Погода в Петрушине

Россия / Рязанская область     53°45′16″N   39°23′30″E
темп.,
°C
ветер,
м/с
пор.,
м/с
влажн.,
%
обл.,
%
осадки,
мм/ч
давл.,
гПа
погр.,
м
2 марта, вт
вт200:00−2зюз7139291 0.0 1019608
03:000з7139395 0.0 1016694
06:00+1з71392100 0.0 1013727
09:00+1з71496100 0.0 1011585
12:00+1зсз713100100 0.3 1009629
15:00+1зсз511100100 0.4 1009598
18:000зсз61197100 0.1 1008604
21:00−2сз5129287 0.3 1010308
3 марта, ср
ср300:00−2сз5119393 0.1 1010389
03:00−2сз6139296 0.2 1012622
06:00−4ссз6129197 0.1 1013589
09:00−5сз7148991 0.1 1016623
12:00−3сз7128317 0.0 1016816
15:00−2зсз510839 0.0 1016823
18:00−2зсз6119257 0.1 1015744
21:00−2з5129179 0.1 1015575
4 марта, чт
чт400:00−2з61292100 0.1 1013698
03:00−3зюз51391100 0.1 1011388
06:00−2зюз81493100 0.0 1008506
09:00−1зюз81787100 0.1 1006660
12:000зюз81486100 0.0 1004827
15:00+1зюз71290100 0.0 1002911
18:00+1зюз61391100 0.0 1000763
21:00+1зюз61297100 0.1 999503
5 марта, пт
пт500:00+1зсз51097100 0.1 999479
03:00−3ссз6895100 1.1 1001366
06:00−5ссз499599 0.1 1004298
09:00−6сз369590 0.1 1007267
12:00−4сз349036 0.0 1009412
15:00−3зсз358644 0.0 1011569
18:00−6зюз239152 0.0 101125
21:00−6з359463 0.0 1014133
6 марта, сб
сб600:00−9сз349296 0.0 101585
03:00−9сз359298 0.0 101599
06:00−10сз2391100 0.0 101565
09:00−9сз259167 0.0 1016155
12:00−6сз35890 0.0 1016284
15:00−5сз35860 0.0 1016521
18:00−8з23911 0.0 101521
21:00−9зюз34920 0.0 101669